[[{"header":{"parameterUnit":"m.s-1","parameterCategory":1,"la1":30.2991,"la2":30.254,"lo1":-89.0895,"lo2":-89.0444,"dy":0.0017,"dx":0.0017,"nx":28,"ny":28,"refTime":"2025-11-13T03:00:00:Z","depth":0,"parameterNumber":2,"parameterNumberName":"U-component_of_WINDS"},"data":[0,0,0,0,0,0,0,0,0,0,0,0,0,0,0,0,0,0,0,0,0,0,0,0,0,0,0,0,0,0,0,0,0,0,0,0,0,0,0,0,0,0,0,0,0,0,0,0,0,0,0,0,0,0,0,0,0,0,0.4926,0.4927,0,0.4967,0.4967,0.4967,0.4949,0.4948,0.4947,0.4946,0.499,0.4992,0.4995,0,0,0,0,0,0,0,0,0,0,0,0,0,0.4835,0.4836,0.4926,0.4927,0.4927,0.4966,0.4967,0.4968,0.4949,0.4948,0.4947,0.4946,0.499,0.4992,0.4995,0,0,0,0,0,0,0,0,0,0,0,0,0,0.4875,0.4837,0.4926,0.4923,0.4923,0.4966,0.4967,0.4968,0.4949,0.4948,0.4946,0.4945,0.4989,0.4992,0.4995,0.5045,0,0,0.5005,0.5006,0,0,0,0,0,0,0,0,0.4872,0.4878,0.4923,0.4923,0.4923,0.4951,0.4951,0.4994,0.495,0.4939,0.4946,0.4944,0.4979,0.4983,0.4994,0.5048,0.5049,0.5005,0.5007,0.5008,0.5009,0,0,0,0,0,0,0,0.487,0.4876,0.4942,0.4923,0.4924,0.492,0.4924,0.4959,0.4967,0.494,0.4939,0.4944,0.4979,0.4991,0.4995,0.505,0.5005,0.5008,0.501,0.5011,0.5146,0.5147,0,0,0,0,0,0,0.4867,0.4874,0.4941,0.4943,0.4893,0.4922,0.4927,0.4944,0.4967,0.4969,0.4945,0.4943,0.4986,0.4991,0.4996,0.5056,0.5008,0.5011,0.5013,0.5144,0.5146,0.5148,0,0,0,0,0,0,0.4865,0.4873,0.4939,0.4908,0.4916,0.4926,0.4945,0.4945,0.4957,0.497,0.4972,0.4956,0.4985,0.4992,0.5033,0.5057,0.5013,0.5016,0.5142,0.5145,0.5147,0.5177,0,0,0,0,0,0,0.4862,0.4872,0.4891,0.4909,0.4918,0.4975,0.4946,0.4947,0.4963,0.496,0.4981,0.4983,0.4984,0.5028,0.5036,0.5061,0.5018,0.514,0.5143,0.5146,0.5174,0.518,0.5185,0,0,0,0,0,0.4859,0.4899,0.4892,0.4901,0.4942,0.4976,0.4982,0.4982,0.4965,0.4984,0.4992,0.4982,0.5053,0.5033,0.5041,0.5068,0.5139,0.5142,0.5146,0.5171,0.5179,0.5185,0,0,0,0,0,0,0.4886,0.4901,0.4894,0.4941,0.4957,0.4973,0.4998,0.499,0.5013,0.5009,0.5009,0.5014,0.5056,0.5066,0.5043,0.5117,0.5093,0.5099,0.5109,0.5117,0.5122,0.512,0.5021,0,0,0,0,0,0.4896,0.4922,0.4935,0.4975,0.4983,0.4989,0.5004,0.5002,0.502,0.5027,0.5038,0.5056,0.5082,0.51,0.5125,0.5174,0.5178,0.5196,0.5202,0.5207,0.5212,0.5238,0.5247,0.516,0.516,0.516,0,0,0.492,0.4932,0.4949,0.498,0.4993,0.502,0.4995,0.5026,0.5046,0.5032,0.5071,0.508,0.51,0.5145,0.5166,0.5155,0.5237,0.5212,0.5215,0.5218,0.5243,0.5251,0.5259,0.5163,0.5162,0.5162,0,0,0.4977,0.4989,0.5023,0.5035,0.5054,0.5057,0.5065,0.5082,0.5087,0.5125,0.5115,0.5139,0.5185,0.5199,0.5212,0.5272,0.5264,0.528,0.5311,0.5337,0.5344,0.535,0.5371,0.5379,0.5285,0.5285,0.5285,0,0.5005,0.5045,0.5042,0.5072,0.5086,0.5073,0.5107,0.512,0.5146,0.5157,0.5143,0.5198,0.5211,0.5259,0.5273,0.5285,0.5294,0.5279,0.5343,0.5349,0.5354,0.5375,0.5383,0.5287,0.5287,0.5287,0.5287,0,0.5077,0.5105,0.513,0.5154,0.5171,0.5204,0.5206,0.5223,0.5219,0.5224,0.5263,0.5277,0.5304,0.5315,0.5313,0.5363,0.5355,0.5342,0.5319,0.5364,0.5384,0.5392,0.529,0.5289,0.5289,0.5288,0,0,0.5155,0.5174,0.5184,0.5194,0.5212,0.5234,0.5265,0.529,0.5306,0.5323,0.535,0.5387,0.5375,0.539,0.5388,0.5411,0.5457,0.5395,0.5395,0.5406,0.5513,0.5523,0.5532,0.5451,0.5452,0.5453,0.5511,0,0.5213,0.5267,0.5264,0.5315,0.5341,0.5327,0.5354,0.5369,0.5374,0.5396,0.5401,0.5428,0.5409,0.5418,0.5439,0.5447,0.5478,0.5442,0.5476,0.5477,0.5472,0.5542,0.5554,0.5608,0.5519,0.552,0.5521,0,0.5289,0.5308,0.5361,0.5374,0.5385,0.5409,0.5431,0.5453,0.5469,0.547,0.5486,0.548,0.5512,0.5486,0.553,0.5506,0.5519,0.5525,0.5527,0.5531,0.5503,0.5549,0.5625,0.5633,0.5533,0.5532,0.5531,0,0.534,0.5379,0.5415,0.5424,0.5441,0.5458,0.5466,0.548,0.5495,0.5514,0.5523,0.5547,0.556,0.5578,0.5578,0.556,0.5623,0.5597,0.5626,0.5626,0.5641,0.564,0.5721,0.5648,0.5648,0.5648,0.5647,0,0.5407,0.544,0.5438,0.5461,0.5497,0.5493,0.553,0.5536,0.5548,0.5572,0.5561,0.5584,0.5583,0.5606,0.5606,0.5643,0.5649,0.5651,0.5651,0.5653,0.5653,0.5663,0.5659,0.565,0.5649,0.5649,0.5648,0,0.5471,0.5471,0.551,0.5521,0.5525,0.5551,0.5561,0.5583,0.5585,0.5615,0.5622,0.5627,0.5653,0.5655,0.5686,0.5686,0.573,0.5725,0.5724,0.5724,0.5752,0.575,0.5843,0.5855,0.5774,0.5774,0.5775,0,0.5514,0.5539,0.5552,0.5566,0.5574,0.5598,0.5612,0.5609,0.5624,0.5643,0.5662,0.5687,0.5707,0.5749,0.5756,0.5779,0.5776,0.5807,0.578,0.578,0.5777,0.5776,0.5778,0.5813,0.5814,0.5814,0.5815,0,0.559,0.5588,0.5609,0.5629,0.5646,0.5662,0.5677,0.5689,0.5687,0.5705,0.5731,0.5746,0.5776,0.5802,0.5824,0.5832,0.5824,0.5823,0.5831,0.5833,0.5832,0.5833,0.574,0.5821,0.5821,0.582,0.582,0.582,0.5645,0.5666,0.5678,0.5701,0.5711,0.5725,0.5745,0.5749,0.5771,0.5794,0.5791,0.5819,0.5833,0.5862,0.5872,0.5895,0.5884,0.5896,0.5899,0.5902,0.5905,0.5827,0.5899,0.5898,0.5898,0.5898,0.5898,0,0.5721,0.5727,0.5748,0.5768,0.5786,0.5774,0.5789,0.5806,0.5831,0.5844,0.5863,0.5892,0.5915,0.5923,0.5946,0.5963,0.5959,0.5969,0.5968,0.597,0.5913,0.5904,0.5971,0.5971,0.5971,0.5971,0.5971,0.5971,0.5763,0.5797,0.5797,0.5836,0.5843,0.587,0.5879,0.5892,0.5902,0.5935,0.5954,0.5958,0.5968,0.5992,0.6013,0.6014,0.6024,0.6035,0.6035,0.5982,0.5974,0.5967,0.5959,0.6037,0.6037,0.6091,0.6091,0.6092]},{"header":{"parameterUnit":"m.s-1","parameterCategory":1,"la1":30.2991,"la2":30.254,"lo1":-89.0895,"lo2":-89.0444,"dy":0.0017,"dx":0.0017,"nx":28,"ny":28,"refTime":"2025-11-13T03:00:00:Z","depth":0,"parameterNumber":3,"parameterNumberName":"V-component_of_WINDS"},"data":[0,0,0,0,0,0,0,0,0,0,0,0,0,0,0,0,0,0,0,0,0,0,0,0,0,0,0,0,0,0,0,0,0,0,0,0,0,0,0,0,0,0,0,0,0,0,0,0,0,0,0,0,0,0,0,0,0,0,-0.3662,-0.3663,0,-0.3779,-0.378,-0.3782,-0.3842,-0.3842,-0.3842,-0.3842,-0.3965,-0.3968,-0.3972,0,0,0,0,0,0,0,0,0,0,0,0,0,-0.3493,-0.3496,-0.3661,-0.3663,-0.3664,-0.3779,-0.378,-0.3782,-0.3842,-0.3842,-0.3842,-0.3842,-0.3964,-0.3968,-0.3972,0,0,0,0,0,0,0,0,0,0,0,0,0,-0.3584,-0.3496,-0.3661,-0.3708,-0.3713,-0.3778,-0.378,-0.3782,-0.3842,-0.3842,-0.3842,-0.3842,-0.3963,-0.3968,-0.3972,-0.4001,0,0,-0.3987,-0.3989,0,0,0,0,0,0,0,0,-0.3579,-0.359,-0.37,-0.3705,-0.3711,-0.3796,-0.3766,-0.3856,-0.3842,-0.3793,-0.3842,-0.3842,-0.3909,-0.3918,-0.394,-0.4007,-0.4012,-0.3988,-0.3991,-0.3993,-0.3994,0,0,0,0,0,0,0,-0.3572,-0.3585,-0.3708,-0.3701,-0.3708,-0.3724,-0.3737,-0.3784,-0.3849,-0.3797,-0.3802,-0.3815,-0.3912,-0.3935,-0.3944,-0.4014,-0.3988,-0.3992,-0.3995,-0.3997,-0.4112,-0.4112,0,0,0,0,0,0,-0.3558,-0.358,-0.3704,-0.3712,-0.3643,-0.3727,-0.3742,-0.3768,-0.3849,-0.3861,-0.3815,-0.3817,-0.3927,-0.3938,-0.3948,-0.3988,-0.3993,-0.3997,-0.4,-0.4112,-0.4112,-0.4113,0,0,0,0,0,0,-0.3554,-0.3568,-0.37,-0.3647,-0.3665,-0.373,-0.376,-0.3771,-0.3794,-0.3862,-0.3874,-0.3826,-0.3928,-0.3941,-0.3988,-0.3993,-0.4,-0.4004,-0.4112,-0.4112,-0.4112,-0.4068,0,0,0,0,0,0,-0.3549,-0.3567,-0.3577,-0.3647,-0.3667,-0.3736,-0.376,-0.3773,-0.3802,-0.3806,-0.3876,-0.3888,-0.3929,-0.398,-0.3993,-0.4,-0.4008,-0.4112,-0.4112,-0.4112,-0.4069,-0.4066,-0.4064,0,0,0,0,0,-0.3543,-0.356,-0.3577,-0.3592,-0.3682,-0.3736,-0.3748,-0.3794,-0.3802,-0.3814,-0.3858,-0.3886,-0.3991,-0.3984,-0.3999,-0.4008,-0.4112,-0.4112,-0.4112,-0.407,-0.4067,-0.4064,0,0,0,0,0,0,-0.3491,-0.357,-0.359,-0.363,-0.3676,-0.3746,-0.3762,-0.3789,-0.3834,-0.3836,-0.3892,-0.3907,-0.3949,-0.3983,-0.3975,-0.4041,-0.4054,-0.4057,-0.4017,-0.4014,-0.4012,-0.4003,-0.4012,0,0,0,0,0,-0.3484,-0.352,-0.3588,-0.3617,-0.3639,-0.3696,-0.3722,-0.3753,-0.3803,-0.3823,-0.387,-0.3918,-0.3963,-0.399,-0.4035,-0.4074,-0.4091,-0.4088,-0.4085,-0.4083,-0.4085,-0.411,-0.411,-0.4114,-0.4114,-0.4114,0,0,-0.347,-0.3518,-0.3537,-0.3608,-0.3647,-0.3684,-0.3712,-0.3751,-0.3779,-0.3829,-0.3876,-0.3912,-0.397,-0.4013,-0.4035,-0.4043,-0.4088,-0.4083,-0.4081,-0.4085,-0.411,-0.411,-0.411,-0.4114,-0.4114,-0.4114,0,0,-0.3464,-0.3504,-0.3533,-0.3571,-0.3629,-0.3668,-0.3675,-0.3741,-0.3767,-0.3815,-0.3853,-0.3889,-0.3963,-0.4003,-0.4033,-0.4044,-0.4071,-0.4057,-0.4044,-0.4068,-0.4067,-0.4067,-0.4072,-0.4073,-0.4059,-0.4059,-0.4058,0,-0.344,-0.3497,-0.3545,-0.3581,-0.3611,-0.3657,-0.3688,-0.3724,-0.3794,-0.3814,-0.3822,-0.3918,-0.396,-0.4013,-0.4016,-0.4038,-0.4049,-0.4049,-0.4063,-0.4064,-0.4065,-0.407,-0.4071,-0.4056,-0.4057,-0.4057,-0.4057,0,-0.3465,-0.3504,-0.3521,-0.3586,-0.3619,-0.3652,-0.3706,-0.3734,-0.3763,-0.38,-0.3849,-0.3901,-0.3957,-0.3973,-0.4001,-0.4031,-0.4035,-0.4052,-0.4067,-0.4061,-0.4067,-0.4069,-0.4053,-0.4054,-0.4055,-0.4055,0,0,-0.3429,-0.3521,-0.3527,-0.3558,-0.3626,-0.3658,-0.3694,-0.3748,-0.3771,-0.3818,-0.3851,-0.3913,-0.393,-0.3964,-0.3998,-0.4019,-0.4025,-0.4034,-0.4037,-0.4031,-0.4062,-0.4049,-0.405,-0.4044,-0.4044,-0.4045,-0.4058,0,-0.3434,-0.3499,-0.3544,-0.3592,-0.363,-0.3675,-0.3707,-0.3753,-0.3789,-0.3828,-0.3869,-0.3912,-0.3931,-0.3952,-0.3974,-0.4019,-0.4032,-0.4019,-0.4076,-0.4077,-0.406,-0.4053,-0.4039,-0.4049,-0.406,-0.4061,-0.4061,0,-0.3447,-0.3492,-0.3544,-0.361,-0.3627,-0.3655,-0.3709,-0.3744,-0.3798,-0.3823,-0.3862,-0.3896,-0.3938,-0.3949,-0.4008,-0.3998,-0.4024,-0.405,-0.4051,-0.4059,-0.4069,-0.4061,-0.4053,-0.4055,-0.4065,-0.4065,-0.4064,0,-0.3417,-0.3491,-0.3532,-0.3557,-0.3634,-0.3652,-0.3685,-0.3739,-0.3769,-0.3817,-0.3837,-0.3889,-0.3918,-0.3958,-0.4006,-0.4009,-0.4061,-0.4075,-0.4085,-0.4083,-0.4094,-0.4092,-0.409,-0.4109,-0.4109,-0.4109,-0.4109,0,-0.3417,-0.3448,-0.3519,-0.3545,-0.3581,-0.3632,-0.3667,-0.3704,-0.3752,-0.3786,-0.3828,-0.386,-0.3922,-0.3962,-0.4,-0.4044,-0.4056,-0.4079,-0.4089,-0.4076,-0.4073,-0.4094,-0.4095,-0.411,-0.411,-0.411,-0.411,0,-0.3389,-0.3438,-0.3486,-0.3555,-0.3573,-0.3597,-0.3656,-0.3684,-0.3723,-0.3766,-0.3779,-0.3841,-0.389,-0.3943,-0.401,-0.4036,-0.4078,-0.4091,-0.4059,-0.4065,-0.4071,-0.407,-0.4083,-0.4088,-0.4103,-0.4102,-0.4102,0,-0.3386,-0.3411,-0.3482,-0.3508,-0.354,-0.358,-0.3611,-0.3663,-0.3694,-0.3758,-0.3778,-0.383,-0.3874,-0.3951,-0.4003,-0.4055,-0.407,-0.4071,-0.4079,-0.4065,-0.4072,-0.407,-0.4073,-0.4069,-0.4069,-0.4068,-0.4068,0,-0.3376,-0.34,-0.3442,-0.3493,-0.3528,-0.3571,-0.3616,-0.3635,-0.3696,-0.3729,-0.3779,-0.3813,-0.3882,-0.3934,-0.3992,-0.4028,-0.4059,-0.4065,-0.407,-0.4057,-0.4037,-0.4049,-0.4053,-0.4065,-0.4065,-0.4065,-0.4065,-0.4066,-0.3362,-0.3386,-0.344,-0.3486,-0.3525,-0.3566,-0.3595,-0.3638,-0.368,-0.3739,-0.3768,-0.3818,-0.3874,-0.3955,-0.399,-0.4032,-0.4041,-0.4048,-0.405,-0.4051,-0.4048,-0.403,-0.4042,-0.4043,-0.4043,-0.4043,-0.4043,0,-0.3354,-0.3391,-0.3433,-0.3494,-0.3531,-0.3555,-0.3607,-0.3636,-0.3679,-0.3728,-0.377,-0.3829,-0.388,-0.3936,-0.399,-0.4013,-0.4028,-0.4025,-0.4024,-0.4033,-0.4036,-0.4026,-0.4012,-0.4012,-0.4012,-0.4012,-0.4012,-0.4012,-0.3355,-0.3397,-0.3427,-0.349,-0.3528,-0.3576,-0.3604,-0.3642,-0.3681,-0.3744,-0.3786,-0.3822,-0.3874,-0.3933,-0.3981,-0.3997,-0.4015,-0.4008,-0.4028,-0.403,-0.4032,-0.4034,-0.4026,-0.4011,-0.4011,-0.4021,-0.4021,-0.4021]}]]